Regional Weather Roundup
Issued by NWS Charleston, WV

Home | Current Version | Previous Version | Text Only | Print | Product List | Glossary Off
Versions: 1 2 3 4 5 6 7 8 9 10 11 12 13 14 15 16 17 18 19 20 21 22 23 24 25 26 27

000
ASUS41 KRLX 210210
RWRRLX
West Virginia Regional Weather Roundup
National Weather Service Charleston WV
1000 PM EDT THU JUL 20 2017

Note: "fair" indicates few or no clouds below 12,000 feet with no
significant weather and/or obstructions to visibility.

WVZ003-210300-
Northern Panhandle of West Virginia

CITY           SKY/WX    TMP DP  RH WIND       PRES   REMARKS
WHEELING       CLOUDY    74  71  91 SW7       30.02R
$$

WVZ009-210300-
Northwest West Virginia

CITY           SKY/WX    TMP DP  RH WIND       PRES   REMARKS
PARKERSBURG    PTCLDY    79  72  79 SW3       30.04R
$$

WVZ006-210300-
Western West Virginia

CITY           SKY/WX    TMP DP  RH WIND       PRES   REMARKS
HUNTINGTON     CLOUDY    80  74  81 SW3       30.03R
$$

WVZ015-210300-
West Central West Virginia

CITY           SKY/WX    TMP DP  RH WIND       PRES   REMARKS
CHARLESTON     PTCLDY    78  70  76 CALM      30.04R
$$

WVZ022-031-210300-
North Central West Virginia

CITY           SKY/WX    TMP DP  RH WIND       PRES   REMARKS
CLARKSBURG     CLOUDY    75  71  87 CALM      30.04R
MORGANTOWN     MOCLDY    76  70  82 CALM      30.04R
$$

WVZ025-035-042-045-210300-
Southern West Virginia

CITY           SKY/WX    TMP DP  RH WIND       PRES   REMARKS
BECKLEY        CLOUDY    73  64  73 CALM      30.14S
LOGAN            N/A     77  68  73 CALM      30.09R
BLUEFIELD      CLOUDY    72  61  68 W3        30.17R
LEWISBURG      CLEAR     72  63  72 CALM      30.12S
$$

WVZ047-210300-
Northern Mountains of West Virginia

CITY           SKY/WX    TMP DP  RH WIND       PRES   REMARKS
ELKINS         PTCLDY    75  66  73 CALM      30.10R
$$

WVZ052-210300-
Eastern Panhandle of West Virginia

CITY           SKY/WX    TMP DP  RH WIND       PRES   REMARKS
MARTINSBURG    CLOUDY    86  65  49 W8        29.95R
PETERSBURG     CLOUDY    82  68  62 W5        30.02R
$$




USA.gov is the U.S. government's official web portal to all federal, state and local government web resources and services.